Location: Chavannes
(47.1090°N, 0.2226°W)
Time: 14:11:02
(UTC+00:00)

Cosmos 1726 - Pass Details

Date: 16 October 2021
Orbit: 479 x 493 km, 82.5° (Epoch: 02 December)

Event Time Altitude Azimuth Distance (km) Brightness Sun altitude
Rises 17:52:37 0° 201° (SSW) 2,525 6.1 -7.8°
Reaches altitude 10° 17:54:46 10° 208° (SSW) 1,651 5.2 -8.1°
Maximum altitude 17:58:15 47° 283° (WNW) 650 3.3 -8.7°
Drops below altitude 10° 18:01:47 10° 358° (N) 1,668 4.8 -9.3°
Sets 18:03:57 0° 5° (N) 2,554 5.6 -9.7°
